SCP
0 0 0 0 0 0 0 0 0 0 0 0 0 0 0 0 0 0 0 0 0 0
0 0 0 0 0 0 0 0 0 0 0 0 0 0 0 0 0 0 0 0 0 0
0 0 0 0 0 0 0 0 0 0 0 0 0 0 0 0 0 0 0 0 0 0
0 0 0 0 0 0 0 0 0 0 0 0 0 0 0 0 0 0 0 0 0 0
0 0 0 0 0 0 0 0 0 0 0 0 0 0 0 0 0 0 0 0 0 0
0 0 0 0 0 0 0 0 0 0 0 0 0 0 0 0 0 0 0 0 0 0
0 0 0 0 0 0 0 0 0 0 0 0 0 0 0 0 0 0 0 0 0 0
0 0 0 0 0 0 0 0 0 0 0 0 0 0 0 0 0 0 0 0 0 0
0 0 0 0 0 0 0 0 0 0 0 0 0 0 0 0 0 0 0 0 0 0
0 0 0 0 0 0 0 0 0 0 0 0 0 0 0 0 0 0 0 0 0 0
0 0 0 0 0 0 0 0 0 0 0 0 0 0 0 0 0 0 0 0 0 0
0 0 0 0 0 0 0 0 0 0 0 0 0 0 0 0 0 0 0 0 0 0
0 0 0 0 0 0 0 0 0 0 0 0 0 0 0 0 0 0 0 0 0 0
0 0 0 0 0 0 0 0 0 0 0 0 0 0 0 0 0 0 0 0 0 0
Wind_Speed_500mb
84 75 62 54 53 53 52 49 45 42 38 33 31 27 22 19 16 13 11 9 7 6
85 78 65 55 53 52 51 48 46 44 40 36 32 28 23 20 17 15 12 10 8 8
90 79 68 59 55 51 51 50 49 45 42 38 34 29 25 22 19 16 13 11 9 8
90 85 69 57 58 55 51 48 48 47 43 39 34 30 26 23 19 16 14 12 11 9
91 86 70 63 60 54 49 49 49 46 42 38 35 31 27 23 20 18 16 13 10 7
91 77 80 73 60 50 52 50 45 42 37 35 34 31 26 21 19 18 15 12 11 10
88 86 77 68 64 68 58 50 45 44 45 38 34 29 26 24 19 15 13 11 13 15
81 73 73 68 66 60 57 59 58 51 41 39 32 31 26 21 16 15 15 13 16 20
81 78 71 71 66 66 62 51 51 51 45 36 33 26 21 16 11 15 16 15 18 22
73 66 70 71 77 65 62 58 55 45 38 35 31 23 18 12 15 17 16 16 18 19
72 73 76 70 67 65 57 60 47 40 38 33 24 19 15 14 15 15 15 16 18 19
72 76 77 70 63 65 61 48 46 41 34 25 21 17 14 13 12 12 15 17 17 17
81 77 73 67 64 57 50 48 41 33 25 19 17 15 11 11 12 13 13 15 17 21
78 72 69 66 58 55 49 40 35 27 21 17 15 11 12 12 11 13 14 15 15 16
Wind_Direction_500mb
220 220 218 217 216 216 214 210 205 203 199 201 201 198 196 196 197 197 199 201 209 223
214 214 213 212 215 210 211 209 205 200 202 202 202 202 201 203 205 207 211 214 218 241
209 208 206 210 210 207 209 207 201 202 203 202 202 204 206 207 209 213 215 217 224 241
203 201 204 203 205 204 205 203 202 201 203 202 202 203 207 207 209 214 213 216 222 229
199 195 193 195 197 197 197 197 200 200 201 204 202 204 207 206 204 208 209 206 214 238
195 190 190 190 192 195 197 198 197 196 198 203 202 198 197 197 199 196 202 214 243 267
188 192 189 186 187 186 187 204 211 213 202 198 199 198 191 185 191 211 226 242 264 277
188 184 179 175 179 186 191 191 192 193 191 189 190 186 185 190 197 226 243 260 278 285
177 177 177 185 188 181 180 185 188 183 182 178 189 186 188 198 218 247 263 278 287 295
179 176 179 179 175 176 176 177 179 173 175 187 189 185 204 216 241 256 269 280 286 298
174 173 176 174 168 167 173 175 169 174 180 186 190 202 224 240 251 265 282 293 299 298
175 175 172 171 168 167 168 161 169 175 183 191 204 221 239 254 266 279 290 295 296 295
170 171 169 167 165 163 164 169 173 178 187 202 221 235 249 267 274 281 284 297 296 295
167 165 166 164 163 163 165 171 174 182 192 209 222 237 271 278 277 276 276 280 287 280
Wind_Speed_850mb
84 75 62 54 53 53 52 49 45 42 38 33 31 27 22 19 16 13 11 9 7 6
85 78 65 55 53 52 51 48 46 44 40 36 32 28 23 20 17 15 12 10 8 8
90 79 68 59 55 51 51 50 49 45 42 38 34 29 25 22 19 16 13 11 9 8
90 85 69 57 58 55 51 48 48 47 43 39 34 30 26 23 19 16 14 12 11 9
91 86 70 63 60 54 49 49 49 46 42 38 35 31 27 23 20 18 16 13 10 7
91 77 80 73 60 50 52 50 45 42 37 35 34 31 26 21 19 18 15 12 11 10
88 86 77 68 64 68 58 50 45 44 45 38 34 29 26 24 19 15 13 11 13 15
81 73 73 68 66 60 57 59 58 51 41 39 32 31 26 21 16 15 15 13 16 20
81 78 71 71 66 66 62 51 51 51 45 36 33 26 21 16 11 15 16 15 18 22
73 66 70 71 77 65 62 58 55 45 38 35 31 23 18 12 15 17 16 16 18 19
72 73 76 70 67 65 57 60 47 40 38 33 24 19 15 14 15 15 15 16 18 19
72 76 77 70 63 65 61 48 46 41 34 25 21 17 14 13 12 12 15 17 17 17
81 77 73 67 64 57 50 48 41 33 25 19 17 15 11 11 12 13 13 15 17 21
78 72 69 66 58 55 49 40 35 27 21 17 15 11 12 12 11 13 14 15 15 16
Wind_Direction_850mb
220 220 218 217 216 216 214 210 205 203 199 201 201 198 196 196 197 197 199 201 209 223
214 214 213 212 215 210 211 209 205 200 202 202 202 202 201 203 205 207 211 214 218 241
209 208 206 210 210 207 209 207 201 202 203 202 202 204 206 207 209 213 215 217 224 241
203 201 204 203 205 204 205 203 202 201 203 202 202 203 207 207 209 214 213 216 222 229
199 195 193 195 197 197 197 197 200 200 201 204 202 204 207 206 204 208 209 206 214 238
195 190 190 190 192 195 197 198 197 196 198 203 202 198 197 197 199 196 202 214 243 267
188 192 189 186 187 186 187 204 211 213 202 198 199 198 191 185 191 211 226 242 264 277
188 184 179 175 179 186 191 191 192 193 191 189 190 186 185 190 197 226 243 260 278 285
177 177 177 185 188 181 180 185 188 183 182 178 189 186 188 198 218 247 263 278 287 295
179 176 179 179 175 176 176 177 179 173 175 187 189 185 204 216 241 256 269 280 286 298
174 173 176 174 168 167 173 175 169 174 180 186 190 202 224 240 251 265 282 293 299 298
175 175 172 171 168 167 168 161 169 175 183 191 204 221 239 254 266 279 290 295 296 295
170 171 169 167 165 163 164 169 173 178 187 202 221 235 249 267 274 281 284 297 296 295
167 165 166 164 163 163 165 171 174 182 192 209 222 237 271 278 277 276 276 280 287 280